Available Loads Sorted by Reference.
1-800-520-3783
Click on column header to sort on that column.
Reference Origin Destination Commodity Equipment Pickup Deliver Miles Weight Partial MultiStop
0144915
Committed
COFIELD, NC CHARLOTTE, NC STEEL PLATE Flatbed w/Tarps 9/24/18 07:00 9/25/18 00:00 271 38,321 N N
0144932
Committed
COFIELD, NC CHARLOTTE, NC STEEL PLATE Flatbed w/Tarps 9/24/18 07:00 9/25/18 00:01 271 45,585 N N
0144996 NAPPANEE, IN DAVENPORT, IA METAL PRODUCTS Van 9/24/18 07:00 9/25/18 11:00 257 40,618 N N
0144997 NAPPANEE, IN DAVENPORT, IA METAL PRODUCTS Van 9/26/18 07:00 9/27/18 11:00 257 40,618 N N
0145245 COFIELD, NC BRISTOL, VA STEEL PLATE Flatbed w/Tarps 9/24/18 07:00 9/25/18 00:00 355 35,793 N N
0145328 CAYCE, SC BALTIMORE, MD IRON & STEEL ARTICLE Flatbed w/Tarps 9/24/18 07:00 9/25/18 00:00 499 48,000 N N
0145474 COFIELD, NC GREENSBORO, NC STEEL PLATE Flatbed w/Tarps 9/24/18 07:00 9/27/18 00:00 189 39,235 N N
0145486 COFIELD, NC GREENSBORO, NC STEEL PLATE Flatbed w/Tarps 9/24/18 07:00 9/25/18 00:00 189 40,001 N N
0145487 COFIELD, NC GREENSBORO, NC STEEL PLATE Flatbed w/Tarps 9/24/18 07:00 9/25/18 00:00 189 42,744 N N
0145494 COFIELD, NC GREENSBORO, NC STEEL PLATE Flatbed w/Tarps 9/24/18 07:00 9/25/18 00:00 189 45,031 N N
0145498 COFIELD, NC GREENSBORO, NC STEEL PLATE Flatbed w/Tarps 9/24/18 07:00 9/25/18 00:00 189 40,925 N N
0145500 COFIELD, NC GREENSBORO, NC STEEL PLATE Flatbed w/Tarps 9/24/18 07:00 9/25/18 00:00 189 46,040 N N
0145501 COFIELD, NC GREENSBORO, NC STEEL PLATE Flatbed w/Tarps 9/24/18 07:00 9/25/18 00:00 189 40,925 N N
0145503 COFIELD, NC GREENSBORO, NC STEEL PLATE Flatbed w/Tarps 9/24/18 07:00 9/25/18 00:00 189 46,040 N N
0145505 COFIELD, NC GREENSBORO, NC STEEL PLATE Flatbed w/Tarps 9/24/18 07:00 9/25/18 00:00 189 46,040 N N
0145507 COFIELD, NC GREENSBORO, NC STEEL PLATE Flatbed w/Tarps 9/24/18 07:00 9/25/18 00:00 189 46,040 N N
0145511 COFIELD, NC GREENSBORO, NC STEEL PLATE Flatbed w/Tarps 9/24/18 07:00 9/25/18 00:00 189 44,466 N N
0145512 COFIELD, NC GREENSBORO, NC STEEL PLATE Flatbed w/Tarps 9/24/18 07:00 9/25/18 00:00 189 39,235 N N
0145545 DEWITT, IA NAPPANEE, IN FREIGHT ALL KINDS Van 9/24/18 08:00 9/25/18 07:00 259 4,000 N N
0145558 COFIELD, NC CHARLOTTE, NC STEEL PLATE Flatbed w/Tarps 9/25/18 07:00 9/26/18 10:00 271 38,848 N N
0145563 COFIELD, NC GREENSBORO, NC STEEL PLATE Flatbed w/Tarps 9/26/18 07:00 9/27/18 00:00 189 35,809 N N
0145564 COFIELD, NC GREENSBORO, NC STEEL PLATE Flatbed w/Tarps 9/25/18 07:00 9/26/18 00:00 189 36,619 N N
0145565 COFIELD, NC GREENSBORO, NC STEEL PLATE Flatbed w/Tarps 9/24/18 07:00 9/25/18 00:00 189 42,744 N N
0145566 COFIELD, NC GREENSBORO, NC STEEL PLATE Flatbed w/Tarps 9/24/18 07:00 9/25/18 00:00 189 36,619 N N
0145575 SHOALS, IN IOWA CITY, IA BUILDING MATERIALS Flatbed w/Tarps 9/24/18 07:00 9/25/18 07:00 413 48,000 N N
0145576 SHOALS, IN ELKHORN, WI BUILDING MATERIALS Flatbed w/Tarps 9/24/18 07:00 9/25/18 06:00 340 48,000 N N
0145577 SHOALS, IN HAYS, KS BUILDING MATERIALS Flatbed w/Tarps 9/24/18 07:00 9/26/18 20:15 711 48,000 N N
0145583 ACWORTH, GA PALM CITY, FL ALUMINUM Flatbed or Step Deck 9/24/18 07:00 9/25/18 10:00 676 10,600 N 1
0145589 LA GRANGE, GA SMYRNA, GA ROOFING INSULATION Flatbed w/Tarps 9/24/18 07:00 9/25/18 08:00 75 48,000 N N
0145591 COFIELD, NC ERIE, MI STEEL PLATE Flatbed w/Tarps 9/24/18 07:00 9/27/18 00:00 662 38,388 N N
0145594 TEMPLE, GA GARNER, NC BUILDING MATERIALS FLATBED NO TARP 9/24/18 08:00 9/25/18 11:00 440 48,000 N 1
0145595 TEMPLE, GA GREENWOOD, SC BUILDING MATERIALS FLATBED NO TARP 9/24/18 08:00 9/25/18 09:00 194 20,000 N N
0145596 COFIELD, NC BEDFORD HEIGHTS, OH STEEL PLATE Flatbed w/Tarps 9/24/18 07:00 9/26/18 00:00 539 42,471 N N
0145597 COFIELD, NC LOUISVILLE, KY STEEL PLATE Flatbed w/Tarps 9/17/18 07:00 9/26/18 00:00 637 38,349 N N
0145598 COFIELD, NC TROY, MI STEEL PLATE Flatbed w/Tarps 9/24/18 07:00 9/26/18 00:00 724 33,324 N N
0145599 COFIELD, NC CROSSFIELD, AB STEEL PLATE Flatbed w/Tarps 9/24/18 07:00 9/28/18 00:00 2,467 27,443 N N
0145600 COFIELD, NC ROME, GA STEEL PLATE Flatbed w/Tarps 9/22/18 07:00 9/24/18 00:00 556 38,581 N N
0145601 COFIELD, NC SHELBYVILLE, IN STEEL PLATE Flatbed w/Tarps 9/22/18 07:00 9/24/18 00:00 671 34,726 N N
2916475
Committed
GHENT, KY NASHUA, NH COILS ALL TRKS XCPT CTM,CTY,MRI 12/30/18 00:00 12/31/18 00:00 912 44,000 N No
2916484
Committed
GHENT, KY MORRISVILLE, PA COILS ALL TRKS XCPT CTM,CTY,MRI 12/30/18 00:00 12/31/18 00:00 645 44,000 N No
2916488
Committed
GHENT, KY BETHLEHEM, PA COILS ALL TRKS XCPT CTM,CTY,MRI 12/30/18 00:00 12/31/18 00:00 610 44,000 N No
2916494
Committed
GHENT, KY WYOMING, PA COILS ALL TRKS XCPT CTM,CTY,MRI 12/30/18 00:00 12/31/18 00:00 601 44,000 N No
2916496
Committed
GHENT, KY BALTIMORE, MD COILS ALL TRKS XCPT CTM,CTY,MRI 12/30/18 00:00 12/31/18 00:00 552 44,000 N No
Number of loads 43
LME=38 BB=5